Regional Weather Roundup
Issued by NWS Kansas City/Pleasant Hill, MO

Home | Current Version | Previous Version | Text Only | Print | Product List | Glossary On
Versions: 1 2 3 4 5 6 7 8 9 10 11 12 13 14 15 16 17 18 19 20 21 22 23 24 25 26 27 28 29 30 31 32 33 34 35 36 37 38 39 40 41 42 43 44 45 46 47 48 49 50
913
ASUS43 KEAX 180410
RWREAX

WEATHER ROUNDUP FOR EASTERN KANSAS AND NORTHWEST MISSOURI
NATIONAL WEATHER SERVICE KANSAS CITY/PLEASANT HILL MO
1000 PM CST TUE JAN 17 2017

KSZ040-057-103>105-MOZ028-029-037-043-180500-
...KANSAS CITY METROPOLITAN AREA...

CITY           SKY/WX    TMP DP  RH WIND       PRES   REMARKS
K.C. INTL      CLOUDY    27  24  89 S6        30.15R WCI  20
K.C. DOWNTOWN  CLEAR     35  33  92 CALM      30.16S
LEES SUMMIT    CLEAR     33  31  92 SW8       30.16F WCI  26
OLATHE - IXD   CLEAR     29  29 100 S3        30.15F FOG
OLATHE - OJC   CLEAR     31  31 100 S3        30.15S FOG
LAWRENCE       CLEAR     26  26 100 SE5       30.16S FOG     WCI  20

$$

MOZ001>008-011>017-020>025-030>033-038>040-044>046-053-054-180500-
...NORTHERN AND CENTRAL MISSOURI...

CITY           SKY/WX    TMP DP  RH WIND       PRES   REMARKS
ST. JOSEPH     FOG       26  26 100 CALM      30.17R VSB 1/2
MOSBY          CLOUDY    30  30 100 CALM      30.17F
WARRENSBURG    MOCLDY    34  32  93 CALM      30.17S
WHITEMAN AFB   PTCLDY    33  33 100 SW5       30.16S WCI  28
CLINTON        CLOUDY    36  32  87 S5        30.19S WCI  32
SEDALIA        CLOUDY    38  34  85 W5        30.18S WCI  34
WARSAW         NOT AVBL
CHILLICOTHE      N/A     35  31  85 SW3       30.18R
KIRKSVILLE     CLOUDY    36  33  89 W3        30.14R

$$

MOZ041-047>049-056>058-063>065-088>090-097-180500-
...EASTERN AND SOUTHERN MISSOURI...

CITY           SKY/WX    TMP DP  RH WIND       PRES   REMARKS
ST. LOUIS INTL CLOUDY    42  35  76 W12       30.17S
SPIRIT OF STL  CLOUDY    41  37  86 W7        30.17S
COLUMBIA       CLOUDY    38  36  92 W6        30.17S WCI  33
JEFFERSON CITY CLOUDY    39  35  86 W8        30.19F WCI  33
ROLLA          CLOUDY    37  36  96 W6        30.16S WCI  32
OSAGE BEACH    CLOUDY    38  35  89 W5        30.19F WCI  34
SPRINGFIELD    CLOUDY    37  35  92 NW5       30.18R WCI  33
BRANSON        CLOUDY    37  36  93 W3        30.19R
JOPLIN         CLOUDY    38  36  92 S6        30.21R WCI  33
WEST PLAINS    CLOUDY    39  36  89 NW5       30.18R

$$

IAZ060-094-KSZ022-034>040-054-083-096-NEZ052-066-093-180500-
...KANSAS...SOUTHEAST NEBRASKA AND IOWA...

CITY           SKY/WX    TMP DP  RH WIND       PRES   REMARKS
TOPEKA         CLOUDY    31  26  82 S3        30.15F
MANHATTAN      CLOUDY    26  24  92 SW5       30.14F WCI  20
EMPORIA        CLOUDY    31  27  85 CALM      30.14F
CHANUTE        CLOUDY    31  29  92 S7        30.18S WCI  24
WICHITA        CLOUDY    36  33  89 S3        30.16R
OMAHA          CLOUDY    26  22  84 SE7       30.08F FOG     WCI  18
LINCOLN        CLEAR     25  24  96 S7        30.09S WCI  17
FALLS CITY     CLEAR     29  28  96 S7        30.13S WCI  22
LAMONI         CLOUDY    32  30  92 SW8       30.12R WCI  25
DES MOINES     CLOUDY    32  31  96 W10       30.10S FOG     WCI  24

$$





USA.gov is the U.S. government's official web portal to all federal, state and local government web resources and services.